This is the latest recevied weather packets stored in our database for station/object WA6MHA-11. If no packets are shown the sender has not sent any weather packets the latest 10 day(s).
| Time | Temp. | Humidity | Pressure | Rain* | Wind** | Luminosity | Snow |
|---|---|---|---|---|---|---|---|
| 1777412364 | 28.89° C | 22% | 1017 hPa | 0 mm | - | - | - |
| 1777412121 | 29.44° C | 22% | 1017.1 hPa | 0 mm | - | - | - |
| 1777411881 | 28.89° C | 22% | 1017.2 hPa | 0 mm | - | - | - |
| 1777411880 | 28.89° C | 22% | 1017.2 hPa | 0 mm | - | - | - |
| 1777411638 | 28.89° C | 22% | 1017.2 hPa | 0 mm | - | - | - |
| 1777411155 | 28.89° C | 22% | 1017.3 hPa | 0 mm | - | - | - |
| 1777410673 | 28.33° C | 22% | 1017.3 hPa | 0 mm | - | - | - |
| 1777410431 | 28.89° C | 22% | 1017.2 hPa | 0 mm | - | - | - |
| 1777409949 | 28.89° C | 22% | 1017.1 hPa | 0 mm | - | - | - |
| 1777409466 | 28.33° C | 22% | 1017.2 hPa | 0 mm | - | - | - |
| 1777409225 | 28.33° C | 22% | 1017.1 hPa | 0 mm | - | - | - |
| 1777408983 | 28.89° C | 22% | 1017.2 hPa | 0 mm | - | - | - |
| 1777408501 | 29.44° C | 22% | 1017.1 hPa | 0 mm | - | - | - |
| 1777408019 | 28.89° C | 22% | 1017.1 hPa | 0 mm | - | - | - |
| 1777407778 | 28.89° C | 22% | 1017.3 hPa | 0 mm | - | - | - |
| 1777407535 | 27.78° C | 21% | 1017.1 hPa | 0 mm | - | - | - |
| 1777407445 | 28.33° C | 22% | 1017.2 hPa | 0 mm | - | - | - |
| 1777407294 | 28.33° C | 22% | 1017.2 hPa | 0 mm | - | - | - |
| 1777407086 | 28.89° C | 22% | 1017.2 hPa | 0 mm | - | - | - |
| 1777407054 | 28.89° C | 22% | 1017.2 hPa | 0 mm | - | - | - |
| 1777406812 | 29.44° C | 22% | 1017.3 hPa | 0 mm | - | - | - |
| 1777406571 | 28.89° C | 23% | 1017.4 hPa | 0 mm | - | - | - |
| 1777406366 | 28.33° C | 22% | 1017.4 hPa | 0 mm | - | - | - |
| 1777406330 | 28.33° C | 22% | 1017.4 hPa | 0 mm | - | - | - |
| 1777406088 | 27.78° C | 22% | 1017.3 hPa | 0 mm | - | - | - |
* Rain since midnight (hover to see other rain measurements)
** Current wind speed in m/s (hover to see current wind gust speed)